Weather History for KEYF - March, 2013

Change the Weather History Date:

Tuesday, March 12, 2013

  Actual Average (KILM) Record (KILM)
Temperature  
Mean Temperature 65 °F 54 °F  
Max Temperature 72 °F 65 °F 87 °F (1990)
Min Temperature 57 °F 43 °F 25 °F (1916)
Degree Days  
Heating Degree Days 0 11  
Month to date heating degree days 152  
Since 1 July heating degree days 2081  
Cooling Degree Days 0 0  
Month to date cooling degree days 0  
Year to date cooling degree days 5  
Growing Degree Days 15 (Base 50)    
Moisture  
Dew Point 58 °F    
Average Humidity 82    
Maximum Humidity 100    
Minimum Humidity 45    
Precipitation  
Precipitation 0.35 in 0.14 in 1.55 in (1944)
Month to date precipitation 1.68  
Year to date precipitation 9.06  
Snow  
Snow 0.00 in 0.00 in 0.90 in (1960)
Month to date snowfall 0.0  
Since 1 July snowfall 1.5  
Snow Depth -    
Sea Level Pressure  
Sea Level Pressure 29.85 in    
Wind  
Wind Speed 6 mph (SSW)    
Max Wind Speed 15 mph    
Max Gust Speed 20 mph    
Visibility 9 miles    
Events Rain    
T = Trace of Precipitation, MM = Missing Value Source: NWS Daily Summary

Daily Weather History Graph

Daily Weather History Graph

Search for Another Location

Airport or City:

Trip Planner

Search our weather history database for the weather conditions in past years. The results will help you decide how hot, cold, wet, or windy it might be!

Date:

Astronomy

Mar. 12, 2013 Rise Set
Actual Time 7:28 AM EDT 7:19 PM EDT
Civil Twilight 7:03 AM EDT 7:44 PM EDT
Nautical Twilight 6:34 AM EDT 8:14 PM EDT
Astronomical Twilight 6:05 AM EDT 8:43 PM EDT
Moon 7:38 AM EDT (3/12) 8:27 PM EDT (3/12)
Length of Visible Light 12h 41m
Length of Day
11h 51m
New Moon, 1% of the Moon is Illuminated
Mar 12
New Moon
Mar 19
First Quarter
Mar 27
Full
Apr 3
Last Quarter
Apr 10
New

Hourly Weather History & Observations

Time (EDT) Temp. Dew Point Humidity Pressure Visibility Wind Dir Wind Speed Gust Speed Precip Events Conditions
12:15 AM 60.3 °F 54.7 °F 82% 29.95 in 10.0 mi ESE 3.5 mph - N/A   Mostly Cloudy
12:35 AM 59.5 °F 54.7 °F 84% 29.95 in 10.0 mi East 3.5 mph - N/A   Mostly Cloudy
12:55 AM 59.9 °F 55.0 °F 84% 29.96 in 10.0 mi SE 3.5 mph - N/A   Overcast
1:15 AM 59.7 °F 55.0 °F 84% 29.96 in 10.0 mi SSE 5.8 mph - N/A   Overcast
1:35 AM 60.1 °F 55.4 °F 85% 29.93 in 10.0 mi ESE 4.6 mph - N/A   Mostly Cloudy
1:55 AM 60.3 °F 55.8 °F 85% 29.92 in 10.0 mi SE 5.8 mph - N/A   Scattered Clouds
2:15 AM 60.3 °F 56.1 °F 86% 29.92 in 10.0 mi SE 4.6 mph - N/A   Mostly Cloudy
2:35 AM 61.0 °F 56.7 °F 86% 29.91 in 10.0 mi SE 5.8 mph - N/A   Overcast
2:55 AM 61.2 °F 57.4 °F 87% 29.91 in 10.0 mi SSE 5.8 mph - N/A   Mostly Cloudy
3:15 AM 62.6 °F 59.0 °F 88% 29.91 in 10.0 mi South 4.6 mph - N/A   Mostly Cloudy
3:35 AM 62.8 °F 59.0 °F 87% 29.89 in 10.0 mi SSE 8.1 mph - N/A   Mostly Cloudy
3:55 AM 62.8 °F 59.2 °F 88% 29.88 in 10.0 mi SSE 8.1 mph - N/A   Scattered Clouds
4:15 AM 63.5 °F 59.2 °F 86% 29.87 in 10.0 mi SSE 9.2 mph - N/A   Mostly Cloudy
4:35 AM 63.5 °F 59.4 °F 86% 29.88 in 10.0 mi SSE 6.9 mph - N/A Rain Light Rain
4:55 AM 62.8 °F 60.1 °F 91% 29.87 in 7.0 mi SSE 8.1 mph - 0.02 in Rain Rain
5:15 AM 61.9 °F 60.3 °F 94% 29.86 in 10.0 mi SE 8.1 mph - 0.02 in Rain Light Rain
5:35 AM 61.3 °F 60.4 °F 97% 29.85 in 7.0 mi SE 8.1 mph - 0.04 in Rain Light Rain
5:55 AM 61.2 °F 60.4 °F 97% 29.86 in 7.0 mi SSE 8.1 mph - 0.07 in Rain Light Rain
6:15 AM 61.2 °F 60.8 °F 99% 29.86 in 7.0 mi SSE 8.1 mph - 0.01 in Rain Light Rain
6:35 AM 61.5 °F 61.0 °F 98% 29.86 in 7.0 mi SSE 6.9 mph - 0.04 in Rain Rain
7:15 AM 61.7 °F 61.2 °F 98% 29.85 in 7.0 mi SSE 8.1 mph - 0.01 in Rain Light Rain
7:35 AM 61.7 °F 61.3 °F 99% 29.87 in 3.0 mi SW 6.9 mph - 0.12 in Rain Rain
7:55 AM 61.7 °F 61.7 °F 100% 29.87 in 7.0 mi South 6.9 mph - 0.18 in Rain Rain
8:15 AM 61.9 °F 61.7 °F 99% 29.86 in 7.0 mi South 9.2 mph - 0.02 in Rain Rain
8:35 AM 62.1 °F 61.7 °F 99% 29.86 in 7.0 mi South 6.9 mph - 0.03 in Rain Light Rain
9:15 AM 62.8 °F 62.6 °F 99% 29.86 in 7.0 mi South 6.9 mph - 0.01 in Rain Light Rain
9:35 AM 62.8 °F 62.6 °F 99% 29.86 in 10.0 mi SSE 5.8 mph - 0.01 in   Light Drizzle
9:55 AM 62.8 °F 62.6 °F 99% 29.86 in 10.0 mi SSE 4.6 mph - 0.01 in   Overcast
10:15 AM 62.8 °F 62.8 °F 100% 29.86 in 10.0 mi South 6.9 mph - N/A   Overcast
10:35 AM 63.3 °F 63.0 °F 99% 29.86 in 10.0 mi South 4.6 mph - N/A   Overcast
11:15 AM 64.2 °F 63.0 °F 96% 29.86 in 7.0 mi South 8.1 mph - N/A   Overcast
11:35 AM 64.4 °F 63.0 °F 95% 29.86 in 7.0 mi South 6.9 mph - N/A Rain Light Rain
12:15 PM 65.5 °F 63.0 °F 92% 29.86 in 7.0 mi South 9.2 mph - N/A   Overcast
12:35 PM 66.2 °F 63.5 °F 91% 29.86 in 7.0 mi SSW 6.9 mph - N/A Rain Light Rain
1:15 PM 66.2 °F 62.4 °F 88% 29.85 in 7.0 mi SW 9.2 mph 18.4 mph N/A   Overcast
1:35 PM 66.7 °F 61.3 °F 83% 29.84 in 10.0 mi SW 12.7 mph 16.1 mph N/A Rain Light Rain
1:55 PM 67.5 °F 61.0 °F 80% 29.83 in 7.0 mi SW 10.4 mph - N/A Rain Light Rain
2:15 PM 67.1 °F 59.5 °F 77% 29.83 in 10.0 mi SSW 15.0 mph 19.6 mph N/A   Overcast
2:35 PM 67.1 °F 59.7 °F 77% 29.82 in 10.0 mi SW 15.0 mph 19.6 mph N/A   Overcast
2:55 PM 67.8 °F 60.1 °F 76% 29.81 in 10.0 mi SW 9.2 mph 17.3 mph N/A   Overcast
3:15 PM 69.8 °F 60.6 °F 73% 29.80 in 10.0 mi SSW 13.8 mph 18.4 mph N/A   Mostly Cloudy
3:35 PM 69.6 °F 60.8 °F 73% 29.79 in 10.0 mi SSW 9.2 mph - N/A   Mostly Cloudy
3:55 PM 69.8 °F 60.6 °F 73% 29.78 in 10.0 mi SSW 9.2 mph - N/A   Mostly Cloudy
4:15 PM 69.8 °F 60.4 °F 72% 29.77 in 10.0 mi SW 8.1 mph - N/A   Mostly Cloudy
4:35 PM 70.7 °F 59.9 °F 69% 29.77 in 10.0 mi SW 10.4 mph - N/A   Overcast
4:55 PM 70.9 °F 59.4 °F 67% 29.77 in 10.0 mi WSW 8.1 mph - N/A   Mostly Cloudy
5:15 PM 71.1 °F 58.3 °F 64% 29.77 in 10.0 mi West 6.9 mph - N/A   Scattered Clouds
5:35 PM 72.0 °F 57.2 °F 60% 29.77 in 10.0 mi West 8.1 mph - N/A   Clear
5:55 PM 71.8 °F 57.2 °F 60% 29.78 in 10.0 mi WSW 8.1 mph - N/A   Scattered Clouds
6:15 PM 71.6 °F 57.6 °F 61% 29.77 in 10.0 mi SW 6.9 mph - N/A   Clear
6:35 PM 71.2 °F 57.9 °F 63% 29.78 in 10.0 mi WSW 5.8 mph - N/A   Clear
6:55 PM 69.8 °F 58.3 °F 67% 29.78 in 10.0 mi Calm Calm - N/A   Scattered Clouds
7:15 PM 69.4 °F 58.6 °F 68% 29.79 in 10.0 mi WSW 3.5 mph - N/A   Scattered Clouds
7:35 PM 67.3 °F 58.3 °F 73% 29.80 in 10.0 mi Calm Calm - N/A   Clear
7:55 PM 62.8 °F 58.1 °F 85% 29.81 in 10.0 mi Calm Calm - N/A   Clear
8:15 PM 60.8 °F 57.0 °F 87% 29.82 in 10.0 mi Calm Calm - N/A   Clear
8:35 PM 61.2 °F 56.5 °F 85% 29.83 in 10.0 mi West 3.5 mph - N/A   Clear
8:55 PM 62.8 °F 54.0 °F 73% 29.84 in 10.0 mi WNW 3.5 mph - N/A   Clear
9:15 PM 62.8 °F 52.7 °F 70% 29.85 in 10.0 mi NW 3.5 mph - N/A   Clear
9:35 PM 62.8 °F 51.8 °F 67% 29.86 in 10.0 mi NW 5.8 mph - N/A   Clear
10:15 PM 61.0 °F 51.4 °F 71% 29.88 in 10.0 mi NNW 3.5 mph - N/A   Clear
10:35 PM 61.2 °F 49.6 °F 66% 29.88 in 10.0 mi NNW 6.9 mph - N/A   Clear
11:15 PM 59.7 °F 39.0 °F 46% 29.90 in 10.0 mi NNW 5.8 mph - N/A   Clear
11:35 PM 58.5 °F 37.8 °F 46% 29.91 in 10.0 mi NNW 3.5 mph - N/A   Clear
11:55 PM 57.7 °F 36.5 °F 45% 29.92 in 10.0 mi NNW 6.9 mph - N/A   Clear